DW4505 Weather Reports


time (UTC)temp
C
wind
direction
speed
KPH
gust
KPH
rain 1hr
cm
rain 24hr
cm
rain mn
cm
humidity
%
barometer
mb
20210723154509 29 90 0.0 3.2 0.00 0.00 0.00 73 1019.5
20210723154009 29 359 0.0 1.6 0.00 0.00 0.00 73 1019.5
20210723153509 29 6 0.0 1.6 0.00 0.00 0.00 74 1019.4
20210723153009 29 14 0.0 4.8 0.00 0.00 0.00 74 1019.4
20210723152509 29 10 0.0 4.8 0.00 0.00 0.00 76 1019.4
20210723152009 28 212 0.0 1.6 0.00 0.00 0.00 75 1019.5
20210723151509 29 127 1.6 6.4 0.00 0.00 0.00 74 1019.5
20210723151009 29 125 1.6 6.4 0.00 0.00 0.00 74 1019.5
20210723150510 29 149 0.0 1.6 0.00 0.00 0.00 74 1019.4
20210723150009 29 0 0.0 0.0 0.00 0.00 0.00 75 1019.4
20210723145509 28 0 0.0 0.0 0.00 0.00 0.00 75 1019.4
20210723145009 29 0 0.0 0.0 0.00 0.00 0.00 75 1019.4
20210723144509 29 110 0.0 3.2 0.00 0.00 0.00 74 1019.3
20210723144009 29 123 0.0 3.2 0.00 0.00 0.00 73 1019.3
20210723143510 29 123 0.0 3.2 0.00 0.00 0.00 75 1019.3
20210723143009 28 41 0.0 1.6 0.00 0.00 0.00 75 1019.2
20210723142509 28 33 0.0 1.6 0.00 0.00 0.00 76 1019.1
20210723142008 28 6 0.0 1.6 0.00 0.00 0.00 77 1019.2
20210723141509 28 356 0.0 1.6 0.00 0.00 0.00 77 1019.2
20210723141010 28 107 0.0 1.6 0.00 0.00 0.00 76 1019.1
20210723140510 28 115 0.0 1.6 0.00 0.00 0.00 77 1019.1
20210723140009 28 121 0.0 1.6 0.00 0.00 0.00 78 1019.2
20210723135509 27 126 0.0 1.6 0.00 0.00 0.00 78 1019.2
20210723135009 27 126 0.0 1.6 0.00 0.00 0.00 79 1019.2
20210723134508 27 0 0.0 0.0 0.00 0.00 0.00 79 1019.3
20210723134009 27 0 0.0 0.0 0.00 0.00 0.00 80 1019.2
20210723133508 26 0 0.0 0.0 0.00 0.00 0.00 80 1019.2
20210723133008 26 0 0.0 0.0 0.00 0.00 0.00 81 1019.2
20210723132508 26 0 0.0 0.0 0.00 0.00 0.00 81 1019.1
20210723132008 26 0 0.0 0.0 0.00 0.00 0.00 81 1019.0
20210723131509 26 0 0.0 0.0 0.00 0.00 0.00 82 1019.0
20210723131008 26 0 0.0 0.0 0.00 0.00 0.00 82 1019.0
20210723130508 26 0 0.0 0.0 0.00 0.00 0.00 83 1018.9
20210723130008 25 0 0.0 0.0 0.00 0.00 0.00 84 1018.8
20210723125509 25 0 0.0 0.0 0.00 0.00 0.00 85 1018.7
20210723125009 25 0 0.0 0.0 0.00 0.00 0.00 86 1018.7
20210723124508 24 0 0.0 0.0 0.00 0.00 0.00 86 1018.8
20210723124008 24 0 0.0 0.0 0.00 0.00 0.00 87 1018.7
20210723123508 23 0 0.0 0.0 0.00 0.00 0.00 87 1018.6
20210723123009 23 0 0.0 0.0 0.00 0.00 0.00 88 1018.6
20210723122509 23 0 0.0 0.0 0.00 0.00 0.00 88 1018.5
20210723122008 23 0 0.0 0.0 0.00 0.00 0.00 88 1018.5
20210723121509 23 0 0.0 0.0 0.00 0.00 0.00 89 1018.3
20210723121008 23 0 0.0 0.0 0.00 0.00 0.00 89 1018.3
20210723120508 23 0 0.0 0.0 0.00 0.00 0.00 89 1018.4
20210723120009 22 0 0.0 0.0 0.00 0.00 0.00 90 1018.3
20210723115509 22 0 0.0 0.0 0.00 0.00 0.00 90 1018.3
20210723115008 22 0 0.0 0.0 0.00 0.00 0.00 90 1018.4
20210723114508 22 0 0.0 0.0 0.00 0.00 0.00 91 1018.4
20210723114009 22 0 0.0 0.0 0.00 0.00 0.00 91 1018.4
20210723113508 22 0 0.0 0.0 0.00 0.00 0.00 91 1018.3
20210723113009 22 0 0.0 0.0 0.00 0.00 0.00 91 1018.3
20210723112509 22 0 0.0 0.0 0.00 0.00 0.00 92 1018.1
20210723112014 22 0 0.0 0.0 0.00 0.00 0.00 92 1018.0
20210723111509 22 0 0.0 0.0 0.00 0.00 0.00 92 1018.0
20210723111010 22 0 0.0 0.0 0.00 0.00 0.00 92 1018.0
20210723110510 22 0 0.0 0.0 0.00 0.00 0.00 92 1017.9
20210723110009 22 0 0.0 0.0 0.00 0.00 0.00 92 1018.1
20210723105510 22 0 0.0 0.0 0.00 0.00 0.00 92 1018.0
20210723105010 22 0 0.0 0.0 0.00 0.00 0.00 92 1017.9
20210723104509 22 0 0.0 0.0 0.00 0.00 0.00 92 1017.9
20210723104009 22 0 0.0 0.0 0.00 0.00 0.00 92 1017.9
20210723103509 22 0 0.0 0.0 0.00 0.00 0.00 92 1017.8
20210723103010 22 0 0.0 0.0 0.00 0.00 0.00 92 1017.8
20210723102509 22 0 0.0 0.0 0.00 0.00 0.00 92 1017.8
20210723102009 22 0 0.0 0.0 0.00 0.00 0.00 92 1017.7
20210723101509 22 0 0.0 0.0 0.00 0.00 0.00 92 1017.7
20210723101009 22 0 0.0 0.0 0.00 0.00 0.00 92 1017.7
20210723100509 22 0 0.0 0.0 0.00 0.00 0.00 92 1017.7
20210723100009 22 0 0.0 0.0 0.00 0.00 0.00 92 1017.7
20210723095509 22 0 0.0 0.0 0.00 0.00 0.00 92 1017.6
20210723095009 22 0 0.0 0.0 0.00 0.00 0.00 92 1017.6
20210723094510 22 0 0.0 0.0 0.00 0.00 0.00 92 1017.6
20210723094009 22 0 0.0 0.0 0.00 0.00 0.00 92 1017.6
20210723093510 22 0 0.0 0.0 0.00 0.00 0.00 92 1017.7
20210723093010 22 0 0.0 0.0 0.00 0.00 0.00 92 1017.7
20210723092510 22 0 0.0 0.0 0.00 0.00 0.00 92 1017.7
20210723092009 22 0 0.0 0.0 0.00 0.00 0.00 92 1017.6
20210723091509 23 0 0.0 0.0 0.00 0.00 0.00 92 1017.6
20210723091010 23 0 0.0 0.0 0.00 0.00 0.00 92 1017.6
20210723090509 23 0 0.0 0.0 0.00 0.00 0.00 92 1017.7
20210723090010 23 0 0.0 0.0 0.00 0.00 0.00 93 1017.7
20210723085510 23 0 0.0 0.0 0.00 0.00 0.00 93 1017.6
20210723085010 23 0 0.0 0.0 0.00 0.00 0.00 93 1017.6
20210723084509 23 0 0.0 0.0 0.00 0.00 0.00 93 1017.6
20210723084009 23 0 0.0 0.0 0.00 0.00 0.00 93 1017.5
20210723083509 23 0 0.0 0.0 0.00 0.00 0.00 93 1017.5
20210723083009 23 0 0.0 0.0 0.00 0.00 0.00 93 1017.5
20210723082509 23 0 0.0 0.0 0.00 0.00 0.00 92 1017.4
20210723082010 23 0 0.0 0.0 0.00 0.00 0.00 92 1017.4
20210723081510 23 0 0.0 0.0 0.00 0.00 0.00 92 1017.5
20210723081010 23 0 0.0 0.0 0.00 0.00 0.00 92 1017.4
20210723080509 23 0 0.0 0.0 0.00 0.00 0.00 92 1017.5
20210723080010 23 0 0.0 0.0 0.00 0.00 0.00 92 1017.4
20210723075510 23 0 0.0 0.0 0.00 0.00 0.00 92 1017.5
20210723075010 23 0 0.0 0.0 0.00 0.00 0.00 92 1017.4
20210723074509 23 0 0.0 0.0 0.00 0.00 0.00 92 1017.5
20210723074014 23 0 0.0 0.0 0.00 0.00 0.00 92 1017.4
20210723073509 23 0 0.0 0.0 0.00 0.00 0.00 92 1017.4
20210723073010 23 0 0.0 0.0 0.00 0.00 0.00 92 1017.4
20210723072509 23 0 0.0 0.0 0.00 0.00 0.00 93 1017.3
20210723072010 23 0 0.0 0.0 0.00 0.00 0.00 92 1017.3
20210723071510 23 0 0.0 0.0 0.00 0.00 0.00 93 1017.2
20210723071010 23 0 0.0 0.0 0.00 0.00 0.00 92 1017.2
20210723070510 23 100 0.0 1.6 0.00 0.00 0.00 92 1017.2
20210723070010 23 100 0.0 1.6 0.00 0.00 0.00 92 1017.2
20210723065510 23 0 0.0 0.0 0.00 0.00 0.00 92 1017.3
20210723065010 23 0 0.0 0.0 0.00 0.00 0.00 92 1017.3
20210723064509 23 0 0.0 0.0 0.00 0.00 0.00 92 1017.3
20210723064010 23 102 0.0 4.8 0.00 0.00 0.00 92 1017.5
20210723063510 23 102 0.0 4.8 0.00 0.00 0.00 92 1017.5
20210723063010 23 0 0.0 0.0 0.00 0.00 0.00 91 1017.5
20210723062510 23 0 0.0 0.0 0.00 0.00 0.00 91 1017.5
20210723062011 23 0 0.0 0.0 0.00 0.00 0.00 91 1017.6
20210723061509 23 0 0.0 0.0 0.00 0.00 0.00 91 1017.6
20210723061009 23 0 0.0 0.0 0.00 0.00 0.00 91 1017.6
20210723060510 23 0 0.0 0.0 0.00 0.00 0.00 90 1017.8
20210723060009 23 0 0.0 0.0 0.00 0.00 0.00 90 1018.0
20210723055509 23 0 0.0 0.0 0.00 0.00 0.00 90 1018.0
20210723055010 23 0 0.0 0.0 0.00 0.00 0.00 90 1018.1
20210723054510 23 0 0.0 0.0 0.00 0.00 0.00 90 1018.1
20210723054008 23 0 0.0 0.0 0.00 0.00 0.00 89 1018.1
20210723053508 23 0 0.0 0.0 0.00 0.00 0.00 89 1018.2
20210723053008 24 0 0.0 0.0 0.00 0.00 0.00 89 1018.3
20210723052508 24 0 0.0 0.0 0.00 0.00 0.00 89 1018.3
20210723052008 24 0 0.0 0.0 0.00 0.00 0.00 88 1018.4
20210723051508 24 0 0.0 0.0 0.00 0.00 0.00 88 1018.4
20210723051008 24 0 0.0 0.0 0.00 0.00 0.00 88 1018.4
20210723050508 24 0 0.0 0.0 0.00 0.00 0.00 88 1018.5
20210723050009 24 0 0.0 0.0 0.00 0.00 0.00 88 1018.4
20210723045509 25 0 0.0 0.0 0.00 0.00 0.00 88 1018.4
20210723045008 25 0 0.0 0.0 0.00 0.00 0.00 88 1018.4
20210723044508 25 0 0.0 0.0 0.00 0.00 0.00 88 1018.3
20210723044009 25 0 0.0 0.0 0.00 0.00 0.00 88 1018.3
20210723043509 25 0 0.0 0.0 0.00 0.00 0.00 88 1018.2
20210723043008 25 0 0.0 0.0 0.00 0.00 0.00 88 1018.2
20210723042508 25 0 0.0 0.0 0.00 0.00 0.00 88 1018.2
20210723042008 25 0 0.0 0.0 0.00 0.00 0.00 88 1018.2
20210723041508 25 0 0.0 0.0 0.00 0.00 0.00 88 1018.2
20210723041008 25 0 0.0 0.0 0.00 0.00 0.00 87 1018.2
20210723040508 26 0 0.0 0.0 0.00 0.00 0.00 87 1018.2
20210723040013 26 0 0.0 0.0 0.00 0.00 0.00 87 1018.2
20210723035509 26 0 0.0 0.0 0.00 0.00 0.00 87 1018.3
20210723035009 26 0 0.0 0.0 0.00 0.00 0.00 86 1018.3
20210723034508 26 0 0.0 0.0 0.00 0.00 0.00 86 1018.2
20210723034010 26 0 0.0 0.0 0.00 0.00 0.00 85 1018.2
20210723033509 26 0 0.0 0.0 0.00 0.00 0.00 84 1018.2
20210723033008 26 0 0.0 0.0 0.00 0.00 0.00 84 1018.1
20210723032508 26 0 0.0 0.0 0.00 0.00 0.00 84 1018.1
20210723032009 26 0 0.0 0.0 0.00 0.00 0.00 84 1018.1
20210723031508 26 0 0.0 0.0 0.00 0.00 0.00 84 1018.1
20210723031008 26 0 0.0 0.0 0.00 0.00 0.00 84 1018.2
20210723030509 26 0 0.0 0.0 0.00 0.00 0.00 83 1018.1
20210723030008 27 0 0.0 0.0 0.00 0.00 0.00 83 1018.2
20210723025508 27 0 0.0 0.0 0.00 0.00 0.00 82 1018.2
20210723025008 27 0 0.0 0.0 0.00 0.00 0.00 82 1018.2
20210723024509 27 0 0.0 0.0 0.00 0.00 0.00 82 1018.2
20210723024009 27 0 0.0 0.0 0.00 0.00 0.00 81 1018.2
20210723023509 27 0 0.0 0.0 0.00 0.00 0.00 80 1018.2
20210723023009 27 0 0.0 0.0 0.00 0.00 0.00 79 1018.2
20210723022509 27 0 0.0 0.0 0.00 0.00 0.00 79 1018.1
20210723022009 27 0 0.0 0.0 0.00 0.00 0.00 79 1018.1
20210723021509 28 0 0.0 0.0 0.00 0.00 0.00 78 1018.0
20210723021008 28 0 0.0 0.0 0.00 0.00 0.00 78 1018.0
20210723020508 28 0 0.0 0.0 0.00 0.00 0.00 78 1018.0
20210723020008 28 0 0.0 0.0 0.00 0.00 0.00 78 1018.0
20210723015508 28 0 0.0 0.0 0.00 0.00 0.00 77 1018.0
20210723015008 28 0 0.0 0.0 0.00 0.00 0.00 77 1017.9
20210723014508 28 0 0.0 0.0 0.00 0.00 0.00 76 1017.8
20210723014009 28 0 0.0 0.0 0.00 0.00 0.00 76 1017.7
20210723013508 28 0 0.0 0.0 0.00 0.00 0.00 76 1017.6
20210723013008 28 0 0.0 0.0 0.00 0.00 0.00 75 1017.6
20210723012509 28 0 0.0 0.0 0.00 0.00 0.00 75 1017.5
20210723012009 28 0 0.0 0.0 0.00 0.00 0.00 74 1017.4
20210723011509 28 0 0.0 0.0 0.00 0.00 0.00 74 1017.4
20210723011009 29 0 0.0 0.0 0.00 0.00 0.00 73 1017.4
20210723010509 28 0 0.0 0.0 0.00 0.00 0.00 73 1017.3
20210723010008 29 0 0.0 0.0 0.00 0.00 0.00 73 1017.2
20210723005508 29 0 0.0 0.0 0.00 0.00 0.00 73 1017.2
20210723005008 29 0 0.0 0.0 0.00 0.00 0.00 73 1017.2
20210723004509 29 0 0.0 0.0 0.00 0.00 0.00 73 1017.1
20210723004009 29 0 0.0 0.0 0.00 0.00 0.00 73 1017.1
20210723003509 29 0 0.0 0.0 0.00 0.00 0.00 72 1017.2
20210723003008 29 0 0.0 0.0 0.00 0.00 0.00 72 1017.1
20210723002508 29 0 0.0 0.0 0.00 0.00 0.00 72 1017.1
20210723002008 29 0 0.0 0.0 0.00 0.00 0.00 71 1017.1
20210723001509 30 0 0.0 0.0 0.00 0.00 0.00 71 1017.0
20210723001009 30 0 0.0 0.0 0.00 0.00 0.00 71 1017.0
20210723000508 30 0 0.0 0.0 0.00 0.00 0.00 72 1017.0
20210723000008 30 0 0.0 0.0 0.00 0.00 0.00 71 1016.9
20210722235509 30 90 0.0 1.6 0.00 0.00 0.00 70 1016.9
20210722235009 30 229 0.0 4.8 0.00 0.00 0.00 69 1016.8
20210722234509 30 245 0.0 4.8 0.00 0.00 0.00 69 1016.7
20210722234013 30 205 0.0 4.8 0.00 0.00 0.00 69 1016.7
20210722233509 30 187 0.0 6.4 0.00 0.00 0.00 68 1016.6
20210722233009 31 175 0.0 6.4 0.00 0.00 0.00 68 1016.6
20210722232509 31 172 0.0 3.2 0.00 0.00 0.00 67 1016.5
20210722232009 31 0 0.0 0.0 0.00 0.00 0.00 67 1016.5
20210722231509 31 0 0.0 0.0 0.00 0.00 0.00 67 1016.5
20210722231009 31 0 0.0 0.0 0.00 0.00 0.00 65 1016.4
20210722230508 32 215 0.0 1.6 0.00 0.00 0.00 63 1016.4
20210722230008 32 215 0.0 1.6 0.00 0.00 0.00 62 1016.4
20210722225509 32 215 0.0 1.6 0.00 0.00 0.00 61 1016.4
20210722225009 32 215 0.0 1.6 0.00 0.00 0.00 60 1016.4
20210722224508 32 215 0.0 1.6 0.00 0.00 0.00 60 1016.5
20210722224008 32 215 0.0 1.6 0.00 0.00 0.00 60 1016.5
20210722223509 32 0 0.0 0.0 0.00 0.00 0.00 62 1016.5
20210722223010 32 0 0.0 0.0 0.00 0.00 0.00 62 1016.6
20210722222509 32 0 0.0 0.0 0.00 0.00 0.00 60 1016.6
20210722222009 32 0 0.0 0.0 0.00 0.00 0.00 59 1016.5
20210722221509 32 0 0.0 0.0 0.00 0.00 0.00 59 1016.6
20210722221009 33 210 0.0 1.6 0.00 0.00 0.00 59 1016.5
20210722220509 33 210 0.0 1.6 0.00 0.00 0.00 58 1016.5
20210722220009 33 235 0.0 1.6 0.00 0.00 0.00 56 1016.5
20210722215509 33 235 0.0 1.6 0.00 0.00 0.00 56 1016.6
20210722215009 33 0 0.0 0.0 0.00 0.00 0.00 56 1016.5
20210722214509 34 0 0.0 0.0 0.00 0.00 0.00 56 1016.5
20210722214008 34 0 0.0 0.0 0.00 0.00 0.00 55 1016.5
20210722213509 34 40 0.0 1.6 0.00 0.00 0.00 52 1016.4
20210722213009 34 40 0.0 1.6 0.00 0.00 0.00 50 1016.4
20210722212509 34 0 0.0 0.0 0.00 0.00 0.00 55 1016.3
20210722212009 34 62 0.0 1.6 0.00 0.00 0.00 55 1016.4
20210722211509 34 51 0.0 1.6 0.00 0.00 0.00 57 1016.3
20210722211010 34 58 0.0 1.6 0.00 0.00 0.00 57 1016.3
20210722210531 34 71 0.0 1.6 0.00 0.00 0.00 55 1016.2
20210722210031 34 17 0.0 1.6 0.00 0.00 0.00 55 1016.2
20210722205510 34 39 0.0 1.6 0.00 0.00 0.00 56 1016.1
20210722205010 34 102 0.0 1.6 0.00 0.00 0.00 53 1016.1
20210722204508 34 9 0.0 1.6 0.00 0.00 0.00 55 1016.2
20210722204009 34 6 0.0 1.6 0.00 0.00 0.00 55 1016.3
20210722203509 34 9 0.0 1.6 0.00 0.00 0.00 56 1016.3
20210722203009 34 54 0.0 1.6 0.00 0.00 0.00 54 1016.3
20210722202509 34 135 0.0 1.6 0.00 0.00 0.00 56 1016.3
20210722202009 35 153 0.0 1.6 0.00 0.00 0.00 56 1016.2
20210722201509 34 150 0.0 1.6 0.00 0.00 0.00 54 1016.3
20210722201009 34 12 0.0 1.6 0.00 0.00 0.00 56 1016.3
20210722200508 34 9 0.0 1.6 0.00 0.00 0.00 53 1016.3
20210722200010 34 254 0.0 4.8 0.00 0.00 0.00 51 1016.3
20210722195508 34 257 0.0 4.8 0.00 0.00 0.00 54 1016.3
20210722195009 34 2 0.0 6.4 0.00 0.00 0.00 53 1016.4
20210722194509 34 2 0.0 6.4 0.00 0.00 0.00 52 1016.3
20210722194013 34 339 0.0 1.6 0.00 0.00 0.00 55 1016.3
20210722193509 33 358 0.0 4.8 0.00 0.00 0.00 53 1016.3
20210722193009 34 7 0.0 4.8 0.00 0.00 0.00 52 1016.4
20210722192509 34 94 0.0 3.2 0.00 0.00 0.00 58 1016.4
20210722192009 33 86 0.0 3.2 0.00 0.00 0.00 58 1016.4
20210722191509 33 34 0.0 1.6 0.00 0.00 0.00 59 1016.4
20210722191009 33 19 0.0 1.6 0.00 0.00 0.00 59 1016.5
20210722190509 33 342 0.0 1.6 0.00 0.00 0.00 59 1016.4
20210722190010 34 35 0.0 1.6 0.00 0.00 0.00 58 1016.4
20210722185509 34 57 0.0 1.6 0.00 0.00 0.00 57 1016.4
20210722185009 34 223 0.0 4.8 0.00 0.00 0.00 56 1016.4
20210722184509 34 254 0.0 4.8 0.00 0.00 0.00 54 1016.5
20210722184009 34 351 0.0 4.8 0.00 0.00 0.00 53 1016.5
20210722183509 35 354 0.0 1.6 0.00 0.00 0.00 56 1016.5
20210722183009 34 348 0.0 1.6 0.00 0.00 0.00 55 1016.5
20210722182510 34 5 0.0 1.6 0.00 0.00 0.00 55 1016.6
20210722182009 35 18 0.0 1.6 0.00 0.00 0.00 53 1016.7
20210722181509 35 295 0.0 1.6 0.00 0.00 0.00 56 1016.8
20210722181009 34 18 0.0 1.6 0.00 0.00 0.00 54 1016.8
20210722180509 34 265 0.0 3.2 0.00 0.00 0.00 57 1016.8
20210722180009 33 265 0.0 3.2 0.00 0.00 0.00 54 1017.0
20210722175509 34 227 0.0 1.6 0.00 0.00 0.00 56 1017.0
20210722175009 34 230 0.0 3.2 0.00 0.00 0.00 56 1017.1
20210722174510 33 244 0.0 3.2 0.00 0.00 0.00 56 1017.1
20210722174009 33 268 0.0 3.2 0.00 0.00 0.00 58 1017.1
20210722173509 33 322 0.0 1.6 0.00 0.00 0.00 56 1017.2
20210722173009 34 64 0.0 1.6 0.00 0.00 0.00 55 1017.3
20210722172509 34 73 0.0 1.6 0.00 0.00 0.00 57 1017.3
20210722172009 33 73 0.0 1.6 0.00 0.00 0.00 58 1017.4
20210722171509 33 297 0.0 1.6 0.00 0.00 0.00 60 1017.4
20210722171009 33 300 0.0 1.6 0.00 0.00 0.00 60 1017.4
20210722170509 33 127 0.0 4.8 0.00 0.00 0.00 61 1017.4
20210722170009 33 126 1.6 4.8 0.00 0.00 0.00 61 1017.4
20210722165509 33 120 0.0 4.8 0.00 0.00 0.00 64 1017.5
20210722165009 33 117 0.0 4.8 0.00 0.00 0.00 61 1017.5
20210722164509 33 73 0.0 1.6 0.00 0.00 0.00 63 1017.6
20210722164009 33 75 0.0 1.6 0.00 0.00 0.00 62 1017.6
20210722163509 32 87 0.0 1.6 0.00 0.00 0.00 62 1017.7
20210722163010 32 22 0.0 3.2 0.00 0.00 0.00 63 1017.7
20210722162509 32 3 0.0 3.2 0.00 0.00 0.00 63 1017.8
20210722162010 32 348 0.0 4.8 0.00 0.00 0.00 62 1017.8
20210722161509 32 346 0.0 4.8 0.00 0.00 0.00 64 1017.9
20210722161009 32 342 0.0 3.2 0.00 0.00 0.00 65 1017.9
20210722160510 32 328 0.0 1.6 0.00 0.00 0.00 66 1018.0
20210722160009 32 356 0.0 1.6 0.00 0.00 0.00 65 1018.0
20210722155509 31 13 0.0 1.6 0.00 0.00 0.00 64 1017.9
20210722155009 31 17 0.0 1.6 0.00 0.00 0.00 67 1018.0